| time (UTC) | temp F | wind direction | speed knots | gust knots | rain 1hr in | rain 24hr in | rain mn in | humidity % | barometer mb |
| 20260507151502 | 63 | 163 | 1.7 | 5.2 | 0.00 | 0.00 | 0.00 | 82 | 1016.0 |
| 20260507150002 | 61 | 190 | 1.7 | 5.2 | 0.00 | 0.00 | 0.00 | 86 | 1016.0 |
| 20260507144501 | 60 | 132 | 1.7 | 5.2 | 0.00 | 0.00 | 0.00 | 87 | 1016.0 |
| 20260507143002 | 59 | 121 | 1.7 | 4.3 | 0.00 | 0.00 | 0.00 | 89 | 1015.7 |
| 20260507141502 | 59 | 119 | 1.7 | 3.5 | 0.00 | 0.00 | 0.00 | 88 | 1015.7 |
| 20260507140002 | 58 | 111 | 1.7 | 5.2 | 0.00 | 0.00 | 0.00 | 88 | 1015.6 |
| 20260507134502 | 56 | 77 | 1.7 | 3.5 | 0.00 | 0.00 | 0.00 | 89 | 1015.4 |
| 20260507131502 | 55 | 67 | 1.7 | 2.6 | 0.00 | 0.00 | 0.00 | 91 | 1015.3 |
| 20260507130003 | 55 | 73 | 1.7 | 3.5 | 0.00 | 0.00 | 0.00 | 91 | 1015.1 |
| 20260507124501 | 55 | 78 | 0.9 | 2.6 | 0.00 | 0.00 | 0.00 | 91 | 1015.0 |
| 20260507123002 | 55 | 116 | 0.0 | 0.9 | 0.00 | 0.00 | 0.00 | 91 | 1015.0 |
| 20260507121502 | 56 | 84 | 1.7 | 3.5 | 0.00 | 0.00 | 0.00 | 90 | 1014.8 |
| 20260507120002 | 55 | 111 | 1.7 | 3.5 | 0.00 | 0.00 | 0.00 | 90 | 1014.8 |
| 20260507114502 | 55 | 77 | 1.7 | 2.6 | 0.00 | 0.00 | 0.00 | 90 | 1014.9 |
| 20260507113001 | 56 | 92 | 0.9 | 2.6 | 0.00 | 0.00 | 0.00 | 90 | 1015.0 |
| 20260507110000 | 56 | 92 | 1.7 | 3.5 | 0.00 | 0.00 | 0.00 | 90 | 1015.1 |
| 20260507104501 | 56 | 80 | 1.7 | 3.5 | 0.00 | 0.00 | 0.00 | 90 | 1015.2 |
| 20260507103000 | 56 | 74 | 1.7 | 3.5 | 0.00 | 0.00 | 0.00 | 90 | 1015.3 |
| 20260507101500 | 56 | 77 | 0.9 | 1.7 | 0.00 | 0.00 | 0.00 | 89 | 1015.4 |
| 20260507100002 | 57 | 101 | 0.9 | 1.7 | 0.00 | 0.00 | 0.00 | 89 | 1015.4 |
| 20260507094500 | 57 | 109 | 1.7 | 2.6 | 0.00 | 0.00 | 0.00 | 89 | 1015.5 |
| 20260507093001 | 57 | 81 | 1.7 | 2.6 | 0.00 | 0.00 | 0.00 | 89 | 1015.7 |
| 20260507091500 | 57 | 80 | 1.7 | 2.6 | 0.00 | 0.00 | 0.00 | 89 | 1015.7 |
| 20260507084500 | 57 | 78 | 1.7 | 2.6 | 0.00 | 0.00 | 0.00 | 87 | 1016.0 |
| 20260507083001 | 58 | 81 | 0.9 | 2.6 | 0.00 | 0.00 | 0.00 | 87 | 1016.0 |
| 20260507081500 | 58 | 96 | 0.9 | 2.6 | 0.00 | 0.00 | 0.00 | 87 | 1016.1 |
| 20260507080001 | 58 | 105 | 1.7 | 3.5 | 0.00 | 0.00 | 0.00 | 87 | 1016.2 |
| 20260507074500 | 58 | 84 | 1.7 | 3.5 | 0.00 | 0.00 | 0.00 | 86 | 1016.3 |
| 20260507073000 | 58 | 101 | 1.7 | 2.6 | 0.00 | 0.00 | 0.00 | 87 | 1016.5 |
| 20260507071501 | 59 | 82 | 0.9 | 1.7 | 0.00 | 0.00 | 0.00 | 86 | 1016.5 |
| 20260507064500 | 59 | 98 | 1.7 | 2.6 | 0.00 | 0.00 | 0.00 | 87 | 1016.5 |
| 20260507062959 | 59 | 131 | 0.9 | 2.6 | 0.00 | 0.00 | 0.00 | 86 | 1016.5 |
| 20260507060001 | 60 | 138 | 0.9 | 1.7 | 0.00 | 0.00 | 0.00 | 85 | 1016.6 |
| 20260507053000 | 60 | 169 | 0.9 | 1.7 | 0.00 | 0.00 | 0.00 | 84 | 1016.6 |
| 20260507051459 | 60 | 212 | 0.0 | 0.9 | 0.00 | 0.00 | 0.00 | 84 | 1016.5 |
| 20260507050004 | 60 | 230 | 0.9 | 2.6 | 0.00 | 0.00 | 0.00 | 84 | 1016.4 |
| 20260507043003 | 61 | 192 | 0.9 | 2.6 | 0.00 | 0.00 | 0.00 | 82 | 1016.5 |
| 20260507041503 | 61 | 207 | 1.7 | 2.6 | 0.00 | 0.00 | 0.00 | 83 | 1016.4 |
| 20260507040003 | 61 | 215 | 0.9 | 2.6 | 0.00 | 0.00 | 0.00 | 83 | 1016.3 |
| 20260507034503 | 61 | 262 | 0.9 | 2.6 | 0.00 | 0.00 | 0.00 | 83 | 1016.2 |
| 20260507033003 | 62 | 259 | 1.7 | 3.5 | 0.00 | 0.00 | 0.00 | 82 | 1016.1 |
| 20260507031504 | 62 | 259 | 1.7 | 4.3 | 0.00 | 0.00 | 0.00 | 81 | 1016.0 |
| 20260507030004 | 62 | 215 | 2.6 | 3.5 | 0.00 | 0.00 | 0.00 | 82 | 1015.9 |
| 20260507024503 | 63 | 186 | 2.6 | 4.3 | 0.00 | 0.00 | 0.00 | 80 | 1015.7 |
| 20260507023004 | 64 | 215 | 2.6 | 5.2 | 0.00 | 0.00 | 0.00 | 77 | 1015.6 |
| 20260507021504 | 65 | 225 | 3.5 | 5.2 | 0.00 | 0.00 | 0.00 | 74 | 1015.5 |
| 20260507020005 | 66 | 212 | 3.5 | 7.0 | 0.00 | 0.00 | 0.00 | 70 | 1015.3 |
| 20260507014503 | 67 | 259 | 4.3 | 7.8 | 0.00 | 0.00 | 0.00 | 67 | 1015.3 |
| 20260507013003 | 68 | 250 | 2.6 | 7.0 | 0.00 | 0.00 | 0.00 | 62 | 1015.3 |
| 20260507011503 | 69 | 222 | 2.6 | 7.0 | 0.00 | 0.00 | 0.00 | 61 | 1015.2 |
| 20260507010004 | 70 | 243 | 3.5 | 8.7 | 0.00 | 0.00 | 0.00 | 59 | 1015.1 |
| 20260507001503 | 71 | 231 | 4.3 | 8.7 | 0.00 | 0.00 | 0.00 | 60 | 1015.0 |
| 20260507000005 | 70 | 240 | 5.2 | 9.6 | 0.00 | 0.00 | 0.00 | 61 | 1014.8 |
| 20260506234502 | 71 | 216 | 4.3 | 8.7 | 0.00 | 0.00 | 0.00 | 61 | 1014.8 |
| 20260506233003 | 71 | 257 | 5.2 | 8.7 | 0.00 | 0.00 | 0.00 | 62 | 1014.8 |
| 20260506231504 | 72 | 265 | 4.3 | 10.4 | 0.00 | 0.00 | 0.00 | 60 | 1014.9 |
| 20260506230003 | 73 | 302 | 4.3 | 9.6 | 0.00 | 0.00 | 0.00 | 60 | 1015.0 |
| 20260506224502 | 72 | 272 | 6.1 | 10.4 | 0.00 | 0.00 | 0.00 | 60 | 1015.2 |
| 20260506223004 | 73 | 246 | 5.2 | 9.6 | 0.00 | 0.00 | 0.00 | 61 | 1015.3 |
| 20260506221504 | 73 | 282 | 5.2 | 8.7 | 0.00 | 0.00 | 0.00 | 60 | 1015.3 |
| 20260506220002 | 73 | 273 | 6.1 | 11.3 | 0.00 | 0.00 | 0.00 | 60 | 1015.5 |
| 20260506214502 | 74 | 215 | 5.2 | 9.6 | 0.00 | 0.00 | 0.00 | 59 | 1015.6 |
| 20260506213003 | 74 | 223 | 6.1 | 10.4 | 0.00 | 0.00 | 0.00 | 59 | 1015.8 |
| 20260506211502 | 73 | 249 | 7.0 | 13.0 | 0.00 | 0.00 | 0.00 | 59 | 1015.8 |
| 20260506204502 | 74 | 194 | 6.1 | 11.3 | 0.00 | 0.00 | 0.00 | 58 | 1016.0 |
| 20260506203002 | 74 | 260 | 4.3 | 8.7 | 0.00 | 0.00 | 0.00 | 57 | 1016.0 |
| 20260506201502 | 74 | 226 | 5.2 | 8.7 | 0.00 | 0.00 | 0.00 | 58 | 1016.2 |
| 20260506200001 | 73 | 251 | 5.2 | 9.6 | 0.00 | 0.00 | 0.00 | 59 | 1016.2 |
| 20260506194501 | 72 | 252 | 7.0 | 11.3 | 0.00 | 0.00 | 0.00 | 59 | 1016.5 |
| 20260506193001 | 74 | 237 | 6.1 | 12.2 | 0.00 | 0.00 | 0.00 | 58 | 1016.5 |
| 20260506191501 | 76 | 248 | 4.3 | 8.7 | 0.00 | 0.00 | 0.00 | 54 | 1016.6 |
| 20260506190001 | 75 | 205 | 3.5 | 9.6 | 0.00 | 0.00 | 0.00 | 55 | 1016.7 |
| 20260506184502 | 75 | 296 | 2.6 | 9.6 | 0.00 | 0.00 | 0.00 | 54 | 1016.8 |
| 20260506183001 | 75 | 274 | 1.7 | 4.3 | 0.00 | 0.00 | 0.00 | 53 | 1017.0 |
| 20260506181501 | 74 | 184 | 1.7 | 6.1 | 0.00 | 0.00 | 0.00 | 55 | 1017.1 |
| 20260506180001 | 73 | 320 | 1.7 | 6.1 | 0.00 | 0.00 | 0.00 | 52 | 1017.3 |
| 20260506174502 | 72 | 230 | 1.7 | 6.1 | 0.00 | 0.00 | 0.00 | 56 | 1017.4 |
| 20260506171503 | 72 | 227 | 1.7 | 4.3 | 0.00 | 0.00 | 0.00 | 57 | 1017.7 |
| 20260506170003 | 70 | 175 | 1.7 | 6.1 | 0.00 | 0.00 | 0.00 | 60 | 1017.6 |
| 20260506164502 | 69 | 178 | 2.6 | 6.1 | 0.00 | 0.00 | 0.00 | 61 | 1017.6 |
| 20260506161503 | 69 | 304 | 0.9 | 1.7 | 0.00 | 0.00 | 0.00 | 64 | 1017.7 |
| 20260506160001 | 67 | 270 | 0.9 | 6.1 | 0.00 | 0.00 | 0.00 | 64 | 1017.6 |
| 20260506154501 | 65 | 15 | 0.9 | 3.5 | 0.00 | 0.00 | 0.00 | 69 | 1017.6 |